Change the Weather History Date:

Thursday, September 25, 2014

  Actual Average Record
Temperature  
Mean Temperature 68 °F -  
Max Temperature 80 °F 69 °F 89 °F (1956)
Min Temperature 55 °F 44 °F 28 °F (2000)
Cooling Degree Days 2    
Growing Degree Days 18 (Base 50)    
Moisture  
Dew Point 59 °F    
Average Humidity 75    
Maximum Humidity 100    
Minimum Humidity 45    
Precipitation  
Precipitation 0.00 in - - ()
Sea Level Pressure  
Sea Level Pressure 30.16 in    
Wind  
Wind Speed 5 mph (SSE)    
Max Wind Speed 10 mph    
Max Gust Speed 16 mph    
Visibility 9 miles    
Events      
Averages and records for this station are not official NWS values.
T = Trace of Precipitation, MM = Missing Value Source: NWS Daily Summary

Daily Weather History Graph

Daily Weather History Graph

Search for Another Location

Airport or City:

Trip Planner

Search our weather history database for the weather conditions in past years. The results will help you decide how hot, cold, wet, or windy it might be!

Date:

Astronomy

Sep. 25, 2014 Rise Set
Actual Time 7:11 AM CDT 7:12 PM CDT
Civil Twilight 6:42 AM CDT 7:40 PM CDT
Nautical Twilight 6:08 AM CDT 8:14 PM CDT
Astronomical Twilight 5:34 AM CDT 8:48 PM CDT
Moon 8:33 AM CDT (9/25) 7:52 PM CDT (9/25)
Length of Visible Light 12h 58m
Length of Day
12h 01m
New Moon, 2% of the Moon is Illuminated
Sep 25
New Moon
Oct 1
First Quarter
Oct 8
Full
Oct 15
Last Quarter
Oct 23
New

Hourly Weather History & Observations

Time (CDT) Temp. Heat Index Dew Point Humidity Pressure Visibility Wind Dir Wind Speed Gust Speed Precip Events Conditions
12:13 AM 62.6 °F - 59.0 °F 88% 30.14 in 10.0 mi South 6.9 mph - N/A   Clear
12:33 AM 62.6 °F - 59.0 °F 88% 30.14 in 10.0 mi South 6.9 mph - N/A   Clear
12:54 AM 62.6 °F - 59.0 °F 88% 30.14 in 10.0 mi South 5.8 mph - N/A   Clear
1:13 AM 62.6 °F - 59.0 °F 88% 30.14 in 10.0 mi South 3.5 mph - N/A   Clear
1:33 AM 60.8 °F - 57.2 °F 88% 30.15 in 7.0 mi South 3.5 mph - N/A   Clear
1:54 AM 60.8 °F - 57.2 °F 88% 30.15 in 7.0 mi Calm Calm - N/A   Clear
2:13 AM 60.8 °F - 57.2 °F 88% 30.15 in 7.0 mi Calm Calm - N/A   Clear
2:33 AM 60.8 °F - 57.2 °F 88% 30.15 in 7.0 mi South 3.5 mph - N/A   Clear
2:54 AM 60.8 °F - 57.2 °F 88% 30.15 in 7.0 mi Calm Calm - N/A   Clear
3:13 AM 59.0 °F - 57.2 °F 94% 30.15 in 7.0 mi Calm Calm - N/A   Clear
3:33 AM 57.2 °F - 57.2 °F 100% 30.16 in 4.0 mi SE 3.5 mph - N/A   Clear
3:54 AM 57.2 °F - 57.2 °F 100% 30.15 in 3.0 mi SSE 3.5 mph - N/A   Clear
4:13 AM 59.0 °F - 57.2 °F 94% 30.15 in 4.0 mi South 3.5 mph - N/A   Clear
4:33 AM 59.0 °F - 57.2 °F 94% 30.15 in 7.0 mi Calm Calm - N/A   Clear
4:53 AM 59.0 °F - 57.2 °F 94% 30.15 in 5.0 mi Calm Calm - N/A   Clear
5:14 AM 57.2 °F - 57.2 °F 100% 30.16 in 5.0 mi South 3.5 mph - N/A   Clear
5:33 AM 59.0 °F - 57.2 °F 94% 30.16 in 7.0 mi South 3.5 mph - N/A   Clear
5:53 AM 59.0 °F - 57.2 °F 94% 30.16 in 10.0 mi South 3.5 mph - N/A   Clear
6:14 AM 59.0 °F - 57.2 °F 94% 30.17 in 7.0 mi South 3.5 mph - N/A   Clear
6:33 AM 57.2 °F - 55.4 °F 94% 30.17 in 7.0 mi SSW 3.5 mph - N/A   Clear
6:53 AM 57.2 °F - 55.4 °F 94% 30.17 in 7.0 mi South 3.5 mph - N/A   Clear
7:14 AM 57.2 °F - 55.4 °F 94% 30.18 in 5.0 mi Calm Calm - N/A   Clear
7:33 AM 55.4 °F - 55.4 °F 100% 30.18 in 3.0 mi SSW 3.5 mph - N/A   Clear
7:53 AM 59.0 °F - 57.2 °F 94% 30.17 in 7.0 mi SSW 4.6 mph - N/A   Clear
8:14 AM 60.8 °F - 57.2 °F 88% 30.17 in 7.0 mi SSW 3.5 mph - N/A   Clear
8:33 AM 60.8 °F - 57.2 °F 88% 30.18 in 10.0 mi SSW 5.8 mph - N/A   Clear
8:53 AM 62.6 °F - 59.0 °F 88% 30.18 in 10.0 mi South 3.5 mph - N/A   Clear
9:14 AM 64.4 °F - 60.8 °F 88% 30.19 in 7.0 mi South 4.6 mph - N/A   Clear
9:33 AM 66.2 °F - 60.8 °F 83% 30.19 in 10.0 mi SSW 4.6 mph - N/A   Clear
9:53 AM 66.2 °F - 60.8 °F 83% 30.19 in 10.0 mi South 5.8 mph - N/A   Clear
10:14 AM 69.8 °F - 60.8 °F 73% 30.19 in 10.0 mi Calm Calm - N/A   Clear
10:33 AM 69.8 °F - 60.8 °F 73% 30.19 in 10.0 mi South 3.5 mph - N/A   Clear
10:53 AM 71.6 °F - 62.6 °F 73% 30.19 in 10.0 mi SSE 5.8 mph - N/A   Clear
11:14 AM 73.4 °F - 62.6 °F 69% 30.19 in 10.0 mi South 5.8 mph - N/A   Clear
11:33 AM 73.4 °F - 62.6 °F 69% 30.19 in 10.0 mi South 5.8 mph - N/A   Clear
11:53 AM 75.2 °F - 62.6 °F 65% 30.18 in 10.0 mi SSE 8.1 mph - N/A   Clear
12:14 PM 75.2 °F - 62.6 °F 65% 30.18 in 10.0 mi South 6.9 mph - N/A   Clear
12:33 PM 77.0 °F - 62.6 °F 61% 30.18 in 10.0 mi South 6.9 mph - N/A   Clear
12:53 PM 77.0 °F - 60.8 °F 57% 30.18 in 10.0 mi SSE 8.1 mph - N/A   Scattered Clouds
1:14 PM 78.8 °F - 60.8 °F 54% 30.17 in 10.0 mi SSE 8.1 mph - N/A   Clear
1:33 PM 78.8 °F - 60.8 °F 54% 30.17 in 10.0 mi SSE 10.4 mph - N/A   Clear
1:53 PM 78.8 °F - 60.8 °F 54% 30.16 in 10.0 mi SSE 6.9 mph 16.1 mph N/A   Clear
2:14 PM 78.8 °F - 60.8 °F 54% 30.16 in 10.0 mi SSE 8.1 mph - N/A   Clear
2:33 PM 80.6 °F 81.5 °F 60.8 °F 51% 30.15 in 10.0 mi South 8.1 mph - N/A   Clear
2:54 PM 80.6 °F 81.1 °F 59.0 °F 48% 30.15 in 10.0 mi SSE 3.5 mph - N/A   Clear
3:13 PM 80.6 °F 81.1 °F 59.0 °F 48% 30.14 in 10.0 mi South 4.6 mph - N/A   Clear
3:33 PM 80.6 °F 81.1 °F 59.0 °F 48% 30.14 in 10.0 mi SSE 5.8 mph - N/A   Clear
3:54 PM 80.6 °F 81.1 °F 59.0 °F 48% 30.14 in 10.0 mi SSE 4.6 mph - N/A   Clear
4:13 PM 80.6 °F 81.1 °F 59.0 °F 48% 30.14 in 10.0 mi South 3.5 mph - N/A   Clear
4:54 PM 80.6 °F 81.5 °F 60.8 °F 51% 30.13 in 10.0 mi SSE 5.8 mph - N/A   Clear
5:13 PM 80.6 °F 81.1 °F 59.0 °F 48% 30.13 in 10.0 mi SSE 5.8 mph - N/A   Clear
5:33 PM 80.6 °F 80.8 °F 57.2 °F 45% 30.13 in 10.0 mi SSE 4.6 mph - N/A   Clear
5:54 PM 80.6 °F 80.8 °F 57.2 °F 45% 30.13 in 10.0 mi SSE 4.6 mph - N/A   Clear
6:13 PM 78.8 °F - 59.0 °F 51% 30.13 in 10.0 mi SE 4.6 mph - N/A   Clear
6:33 PM 77.0 °F - 59.0 °F 54% 30.12 in 10.0 mi SE 4.6 mph - N/A   Clear
6:53 PM 75.2 °F - 59.0 °F 57% 30.13 in 10.0 mi SE 6.9 mph - N/A   Clear
7:13 PM 73.4 °F - 59.0 °F 61% 30.13 in 10.0 mi SE 5.8 mph - N/A   Clear
7:33 PM 71.6 °F - 59.0 °F 64% 30.13 in 10.0 mi SE 4.6 mph - N/A   Clear
7:53 PM 69.8 °F - 59.0 °F 68% 30.14 in 10.0 mi ESE 6.9 mph - N/A   Clear
8:14 PM 69.8 °F - 59.0 °F 68% 30.14 in 10.0 mi SE 5.8 mph - N/A   Clear
8:33 PM 69.8 °F - 59.0 °F 68% 30.14 in 10.0 mi SSE 5.8 mph - N/A   Clear
8:53 PM 68.0 °F - 59.0 °F 73% 30.14 in 10.0 mi SE 4.6 mph - N/A   Clear
9:14 PM 66.2 °F - 59.0 °F 78% 30.15 in 10.0 mi SSE 5.8 mph - N/A   Clear
9:33 PM 64.4 °F - 57.2 °F 77% 30.15 in 10.0 mi SE 5.8 mph - N/A   Clear
9:53 PM 66.2 °F - 59.0 °F 78% 30.16 in 10.0 mi SE 8.1 mph - N/A   Clear
10:14 PM 66.2 °F - 59.0 °F 78% 30.16 in 10.0 mi SSE 9.2 mph - N/A   Clear
10:33 PM 66.2 °F - 59.0 °F 78% 30.16 in 10.0 mi SSE 8.1 mph - N/A   Clear
10:53 PM 64.4 °F - 57.2 °F 77% 30.16 in 10.0 mi SSE 6.9 mph - N/A   Clear
11:13 PM 64.4 °F - 57.2 °F 77% 30.16 in 10.0 mi SSE 8.1 mph - N/A   Clear
11:33 PM 62.6 °F - 57.2 °F 82% 30.16 in 10.0 mi SSE 4.6 mph - N/A   Clear
11:53 PM 62.6 °F - 57.2 °F 82% 30.16 in 10.0 mi SSE 6.9 mph - N/A   Clear